VK4CWL-13 Weather Reports


time (UTC)temp
F
wind
direction
speed
knots
gust
knots
rain 1hr
in
rain 24hr
in
rain mn
in
humidity
%
barometer
mb
20260509021907 72 135 10.4 11.3 0.00 0.00 0.00 35 1020.0
20260509021408 72 146 8.7 11.3 0.00 0.00 0.00 35 1020.1
20260509020904 71 135 10.4 10.4 0.00 0.00 0.00 36 1020.2
20260509020018 71 135 8.7 8.7 0.00 0.00 0.00 36 1020.4
20260509015515 71 90 7.8 10.4 0.00 0.00 0.00 36 1020.4
20260509015013 71 135 8.7 9.6 0.00 0.00 0.00 37 1020.4
20260509014511 70 135 10.4 10.4 0.00 0.00 0.00 37 1020.6
20260509014010 70 191 6.1 11.3 0.00 0.00 0.00 38 1020.7
20260509013506 70 135 9.6 9.6 0.00 0.00 0.00 37 1020.8
20260509013004 69 135 7.8 11.3 0.00 0.00 0.00 38 1020.9
20260509012505 69 112 7.8 9.6 0.00 0.00 0.00 38 1021.0
20260509012003 69 135 5.2 13.9 0.00 0.00 0.00 38 1021.0
20260509011808 69 135 12.2 13.9 0.00 0.00 0.00 38 1021.2
20260509011305 69 157 11.3 11.3 0.00 0.00 0.00 39 1021.2
20260509010802 69 135 8.7 13.9 0.00 0.00 0.00 38 1021.4
20260509010302 69 157 8.7 12.2 0.00 0.00 0.00 39 1021.4
20260509005801 68 146 9.6 13.9 0.00 0.00 0.00 39 1021.6
20260509005256 68 135 8.7 14.8 0.00 0.00 0.00 39 1021.6
20260509004754 68 101 11.3 12.2 0.00 0.00 0.00 39 1021.7
20260509004253 67 135 12.2 13.0 0.00 0.00 0.00 39 1021.7
20260509003752 68 135 11.3 13.9 0.00 0.00 0.00 40 1021.9
20260509003247 67 157 9.6 14.8 0.00 0.00 0.00 40 1021.9
20260509002745 67 135 9.6 15.6 0.00 0.00 0.00 40 1022.2
20260509002255 67 135 10.4 18.2 0.00 0.00 0.00 40 1021.9
20260509002000 67 135 17.4 18.2 0.00 0.00 0.00 41 1022.1
20260509001459 67 90 11.3 14.8 0.00 0.00 0.00 41 1022.0
20260509000955 66 135 9.6 17.4 0.00 0.00 0.00 41 1022.1
20260509000803 66 135 17.4 17.4 0.00 0.00 0.00 41 1022.1
20260509000351 66 135 9.6 14.8 0.00 0.00 0.00 41 1022.1
20260508235347 65 135 12.2 16.5 0.00 0.00 0.00 43 1022.4
20260508234846 64 135 13.0 17.4 0.00 0.00 0.00 43 1022.5
20260508234408 64 135 15.6 15.6 0.00 0.00 0.00 43 1022.4
20260508233840 64 135 11.3 17.4 0.00 0.00 0.00 44 1022.4
20260508233337 63 146 15.6 16.5 0.00 0.00 0.00 44 1022.5
20260508232835 63 135 13.0 19.1 0.00 0.00 0.00 44 1022.4
20260508232333 63 135 13.0 15.6 0.00 0.00 0.00 44 1022.4
20260508231830 63 112 12.2 16.5 0.00 0.00 0.00 44 1022.4
20260508231328 62 146 13.9 14.8 0.00 0.00 0.00 45 1022.4
20260508230826 62 123 10.4 15.6 0.00 0.00 0.00 45 1022.4
20260508230324 62 135 13.0 16.5 0.00 0.00 0.00 45 1022.4
20260508225822 62 135 12.2 16.5 0.00 0.00 0.00 46 1022.4
20260508224820 60 135 8.7 14.8 0.00 0.00 0.00 47 1022.5
20260508224314 60 135 10.4 13.0 0.00 0.00 0.00 48 1022.3
20260508223814 59 135 7.0 14.8 0.00 0.00 0.00 49 1022.4
20260508223310 59 135 12.2 13.0 0.00 0.00 0.00 49 1022.2
20260508222807 58 135 11.3 13.0 0.00 0.00 0.00 50 1022.3
20260508222309 57 157 7.0 11.3 0.00 0.00 0.00 52 1022.4
20260508221803 56 135 8.7 11.3 0.00 0.00 0.00 53 1022.3
20260508221301 55 135 12.2 12.2 0.00 0.00 0.00 54 1022.2
20260508220759 55 135 9.6 10.4 0.00 0.00 0.00 55 1022.3
20260508220256 54 180 7.8 7.8 0.00 0.00 0.00 57 1022.3
20260508215754 53 135 4.3 4.3 0.00 0.00 0.00 58 1022.3
20260508215251 52 90 2.6 3.5 0.00 0.00 0.00 60 1022.3
20260508214749 51 90 1.7 1.7 0.00 0.00 0.00 61 1022.3
20260508214247 51 123 0.9 2.6 0.00 0.00 0.00 61 1022.3
20260508213744 50 90 0.9 1.7 0.00 0.00 0.00 61 1022.2
20260508213242 49 135 1.7 1.7 0.00 0.00 0.00 62 1022.2
20260508212740 49 135 0.0 0.9 0.00 0.00 0.00 62 1022.2
20260508212242 48 135 0.9 0.9 0.00 0.00 0.00 62 1022.1
20260508211736 48 135 0.9 2.6 0.00 0.00 0.00 62 1022.0
20260508211233 48 168 1.7 1.7 0.00 0.00 0.00 63 1021.9
20260508210731 47 157 0.9 1.7 0.00 0.00 0.00 63 1021.8
20260508210228 47 168 1.7 1.7 0.00 0.00 0.00 63 1021.8
20260508205726 47 157 1.7 1.7 0.00 0.00 0.00 63 1021.6
20260508205224 46 135 0.9 2.6 0.00 0.00 0.00 63 1021.6
20260508204721 46 180 2.6 2.6 0.00 0.00 0.00 64 1021.6
20260508203719 46 180 1.7 1.7 0.00 0.00 0.00 63 1021.6
20260508203215 46 135 0.9 0.9 0.00 0.00 0.00 62 1021.5
20260508202713 46 180 0.9 0.9 0.00 0.00 0.00 62 1021.3
20260508202211 46 180 0.9 0.9 0.00 0.00 0.00 62 1021.3
20260508201708 46 180 0.0 1.7 0.00 0.00 0.00 62 1021.3
20260508201205 46 135 1.7 1.7 0.00 0.00 0.00 62 1021.3
20260508200703 46 135 0.9 0.9 0.00 0.00 0.00 62 1021.1
20260508200201 46 180 0.9 0.9 0.00 0.00 0.00 61 1021.2
20260508195659 46 180 0.0 0.0 0.00 0.00 0.00 61 1021.1
20260508195156 46 135 1.7 1.7 0.00 0.00 0.00 61 1021.1
20260508194654 46 168 0.9 1.7 0.00 0.00 0.00 61 1021.0
20260508194152 46 180 1.7 1.7 0.00 0.00 0.00 61 1020.9
20260508193650 46 135 0.9 0.9 0.00 0.00 0.00 61 1020.9
20260508193148 46 135 0.9 0.9 0.00 0.00 0.00 60 1020.9
20260508192645 46 180 0.0 0.9 0.00 0.00 0.00 60 1020.8
20260508191640 47 135 0.0 0.0 0.00 0.00 0.00 60 1020.8
20260508191138 47 180 1.7 1.7 0.00 0.00 0.00 60 1020.7
20260508190636 47 157 1.7 1.7 0.00 0.00 0.00 60 1020.7
20260508190133 46 135 1.7 2.6 0.00 0.00 0.00 60 1020.7
20260508185631 46 157 2.6 2.6 0.00 0.00 0.00 60 1020.8
20260508185129 46 180 1.7 2.6 0.00 0.00 0.00 59 1020.7
20260508184627 46 135 0.9 1.7 0.00 0.00 0.00 59 1020.8
20260508184125 46 135 0.0 0.9 0.00 0.00 0.00 59 1020.8
20260508183622 46 33 0.0 0.0 0.00 0.00 0.00 58 1020.7
20260508183119 47 135 0.0 0.9 0.00 0.00 0.00 58 1020.6
20260508182617 47 135 0.9 1.7 0.00 0.00 0.00 58 1020.5
20260508182115 47 135 0.9 3.5 0.00 0.00 0.00 59 1020.4
20260508181613 46 146 0.9 2.6 0.00 0.00 0.00 59 1020.6
20260508181110 46 135 2.6 4.3 0.00 0.00 0.00 59 1020.4
20260508180608 45 135 3.5 3.5 0.00 0.00 0.00 59 1020.4
20260508180106 45 180 2.6 3.5 0.00 0.00 0.00 58 1020.3
20260508175604 45 180 1.7 3.5 0.00 0.00 0.00 59 1020.3
20260508175105 44 180 1.7 2.6 0.00 0.00 0.00 59 1020.3
20260508174559 44 157 1.7 3.5 0.00 0.00 0.00 59 1020.4
20260508174056 44 180 1.7 1.7 0.00 0.00 0.00 57 1020.3
20260508173554 44 180 1.7 1.7 0.00 0.00 0.00 56 1020.2
20260508173052 44 157 0.9 1.7 0.00 0.00 0.00 56 1020.1
20260508172550 44 180 0.9 0.9 0.00 0.00 0.00 56 1020.3
20260508172047 44 135 0.9 1.7 0.00 0.00 0.00 56 1020.2
20260508171545 44 168 1.7 1.7 0.00 0.00 0.00 56 1020.2
20260508171043 44 202 0.0 0.9 0.00 0.00 0.00 55 1020.2
20260508170541 44 180 0.9 0.9 0.00 0.00 0.00 55 1020.2
20260508170039 44 180 0.9 0.9 0.00 0.00 0.00 55 1020.3
20260508165536 44 180 0.9 1.7 0.00 0.00 0.00 55 1020.3
20260508165035 44 180 1.7 1.7 0.00 0.00 0.00 55 1020.2
20260508164531 43 270 0.9 0.9 0.00 0.00 0.00 55 1020.2
20260508164029 43 270 0.9 0.9 0.00 0.00 0.00 55 1020.2
20260508163527 43 270 0.0 0.0 0.00 0.00 0.00 55 1020.0
20260508163025 44 180 0.0 0.0 0.00 0.00 0.00 55 1020.0
20260508162522 44 180 0.9 0.9 0.00 0.00 0.00 55 1019.9
20260508162020 44 135 0.9 0.9 0.00 0.00 0.00 54 1020.0
20260508161518 44 180 0.9 0.9 0.00 0.00 0.00 53 1020.0
20260508161016 44 315 0.0 0.0 0.00 0.00 0.00 53 1020.0
20260508160513 45 315 0.0 0.0 0.00 0.00 0.00 52 1020.1
20260508160010 45 315 0.0 0.0 0.00 0.00 0.00 52 1020.0
20260508155508 46 315 0.0 0.0 0.00 0.00 0.00 51 1019.9
20260508155006 46 123 0.9 0.9 0.00 0.00 0.00 50 1019.9
20260508154504 46 90 0.0 1.7 0.00 0.00 0.00 50 1019.9
20260508154002 46 180 1.7 1.7 0.00 0.00 0.00 50 1019.9
20260508153459 46 180 0.9 1.7 0.00 0.00 0.00 50 1019.9
20260508152957 45 180 1.7 1.7 0.00 0.00 0.00 50 1020.0
20260508152455 45 202 0.9 0.9 0.00 0.00 0.00 50 1020.1
20260508151953 45 270 0.0 0.0 0.00 0.00 0.00 50 1020.2
20260508151450 45 135 0.0 0.0 0.00 0.00 0.00 50 1020.2
20260508150947 46 270 0.0 0.0 0.00 0.00 0.00 50 1020.1
20260508150445 46 270 0.0 0.0 0.00 0.00 0.00 50 1020.1
20260508145943 46 225 0.0 0.9 0.00 0.00 0.00 49 1020.1
20260508145441 46 270 0.9 0.9 0.00 0.00 0.00 49 1020.2
20260508144939 46 315 0.0 0.9 0.00 0.00 0.00 49 1020.2
20260508144437 46 315 0.0 0.0 0.00 0.00 0.00 49 1020.2
20260508143934 47 180 0.0 0.9 0.00 0.00 0.00 48 1020.2
20260508143432 47 180 0.0 0.9 0.00 0.00 0.00 48 1020.4
20260508142930 47 90 0.0 0.9 0.00 0.00 0.00 48 1020.4
20260508142427 47 225 0.0 0.0 0.00 0.00 0.00 47 1020.4
20260508141925 47 270 0.0 0.0 0.00 0.00 0.00 47 1020.5
20260508141422 47 225 0.0 0.9 0.00 0.00 0.00 47 1020.5
20260508140923 47 225 0.0 0.9 0.00 0.00 0.00 47 1020.4
20260508140418 48 180 0.0 0.0 0.00 0.00 0.00 47 1020.4
20260508135916 48 180 0.0 0.0 0.00 0.00 0.00 47 1020.4
20260508135414 48 180 0.0 0.0 0.00 0.00 0.00 47 1020.4
20260508134911 49 180 0.0 0.9 0.00 0.00 0.00 47 1020.3
20260508134409 49 180 0.0 0.9 0.00 0.00 0.00 47 1020.4
20260508133907 49 180 0.9 0.9 0.00 0.00 0.00 47 1020.4
20260508133404 50 157 0.9 1.7 0.00 0.00 0.00 46 1020.5
20260508132902 50 157 2.6 2.6 0.00 0.00 0.00 45 1020.3
20260508132359 50 180 2.6 2.6 0.00 0.00 0.00 45 1020.4
20260508131857 50 180 2.6 3.5 0.00 0.00 0.00 45 1020.6
20260508131355 50 191 2.6 3.5 0.00 0.00 0.00 45 1020.5
20260508130853 50 168 3.5 3.5 0.00 0.00 0.00 45 1020.5
20260508130351 50 180 3.5 4.3 0.00 0.00 0.00 44 1020.4
20260508125848 51 168 4.3 5.2 0.00 0.00 0.00 44 1020.5
20260508125346 51 157 4.3 4.3 0.00 0.00 0.00 44 1020.6
20260508124844 51 168 3.5 3.5 0.00 0.00 0.00 44 1020.7
20260508124341 51 157 2.6 3.5 0.00 0.00 0.00 44 1020.6
20260508123839 51 180 2.6 2.6 0.00 0.00 0.00 43 1020.6
20260508123336 51 180 1.7 3.5 0.00 0.00 0.00 43 1020.6
20260508122834 51 168 2.6 3.5 0.00 0.00 0.00 43 1020.6
20260508122332 52 157 2.6 5.2 0.00 0.00 0.00 43 1020.6
20260508121830 52 180 4.3 4.3 0.00 0.00 0.00 43 1020.7
20260508121328 52 180 3.5 5.2 0.00 0.00 0.00 42 1020.8
20260508120826 52 135 4.3 5.2 0.00 0.00 0.00 42 1020.7
20260508120323 52 180 2.6 4.3 0.00 0.00 0.00 42 1020.7
20260508115821 52 157 3.5 4.3 0.00 0.00 0.00 41 1020.6
20260508115318 53 146 3.5 4.3 0.00 0.00 0.00 41 1020.5
20260508114816 53 157 3.5 4.3 0.00 0.00 0.00 41 1020.6
20260508114314 53 157 3.5 4.3 0.00 0.00 0.00 41 1020.6
20260508113814 53 157 4.3 4.3 0.00 0.00 0.00 40 1020.6
20260508113309 53 135 5.2 5.2 0.00 0.00 0.00 40 1020.7
20260508112809 53 146 4.3 5.2 0.00 0.00 0.00 40 1020.8
20260508112307 53 135 3.5 4.3 0.00 0.00 0.00 40 1020.6
20260508111803 54 168 4.3 4.3 0.00 0.00 0.00 40 1020.7
20260508111300 54 157 4.3 5.2 0.00 0.00 0.00 40 1020.7
20260508110758 54 157 3.5 4.3 0.00 0.00 0.00 39 1020.8
20260508110255 54 157 4.3 4.3 0.00 0.00 0.00 39 1020.7
20260508105753 54 135 3.5 4.3 0.00 0.00 0.00 39 1020.7
20260508105251 55 146 4.3 5.2 0.00 0.00 0.00 39 1020.8
20260508104750 55 157 4.3 5.2 0.00 0.00 0.00 38 1020.7
20260508104248 55 157 3.5 5.2 0.00 0.00 0.00 38 1020.7
20260508103744 55 135 4.3 5.2 0.00 0.00 0.00 38 1020.5
20260508103242 55 180 4.3 5.2 0.00 0.00 0.00 38 1020.5
20260508102740 55 146 4.3 5.2 0.00 0.00 0.00 37 1020.5
20260508102239 55 180 2.6 4.3 0.00 0.00 0.00 37 1020.3
20260508101735 55 135 4.3 5.2 0.00 0.00 0.00 37 1020.2
20260508101233 56 157 3.5 5.2 0.00 0.00 0.00 36 1020.2
20260508100733 56 157 4.3 5.2 0.00 0.00 0.00 36 1020.2
20260508100230 56 146 3.5 4.3 0.00 0.00 0.00 36 1020.3
20260508095725 56 146 3.5 6.1 0.00 0.00 0.00 35 1020.2
20260508095223 56 135 4.3 5.2 0.00 0.00 0.00 35 1020.2
20260508094724 56 168 4.3 5.2 0.00 0.00 0.00 35 1020.2
20260508094221 57 168 4.3 5.2 0.00 0.00 0.00 34 1020.1
20260508093717 57 168 4.3 4.3 0.00 0.00 0.00 34 1020.2
20260508093217 57 157 3.5 3.5 0.00 0.00 0.00 33 1020.1
20260508092715 57 157 3.5 3.5 0.00 0.00 0.00 32 1020.0
20260508092213 58 157 3.5 3.5 0.00 0.00 0.00 32 1019.9
20260508091708 58 135 3.5 3.5 0.00 0.00 0.00 32 1019.8
20260508091206 58 146 3.5 4.3 0.00 0.00 0.00 31 1019.6
20260508090704 59 135 3.5 4.3 0.00 0.00 0.00 31 1019.6
20260508090202 59 157 3.5 5.2 0.00 0.00 0.00 30 1019.5
20260508085700 59 168 4.3 4.3 0.00 0.00 0.00 30 1019.5
20260508085157 60 157 4.3 4.3 0.00 0.00 0.00 30 1019.4
20260508084655 60 157 5.2 5.2 0.00 0.00 0.00 30 1019.3
20260508084154 60 168 3.5 5.2 0.00 0.00 0.00 29 1019.2
20260508083651 60 157 6.1 6.1 0.00 0.00 0.00 29 1019.0
20260508083149 61 135 5.2 7.0 0.00 0.00 0.00 29 1019.0
20260508082647 61 146 6.1 7.0 0.00 0.00 0.00 28 1018.9
20260508081640 62 157 4.3 5.2 0.00 0.00 0.00 28 1018.7
20260508081137 62 157 4.3 6.1 0.00 0.00 0.00 27 1018.7
20260508080635 62 180 6.1 7.0 0.00 0.00 0.00 27 1018.7
20260508080135 63 157 4.3 6.1 0.00 0.00 0.00 27 1018.6
20260508075632 63 157 5.2 6.1 0.00 0.00 0.00 26 1018.6
20260508075130 64 135 5.2 6.1 0.00 0.00 0.00 25 1018.4
20260508074628 65 135 4.3 4.3 0.00 0.00 0.00 24 1018.2
20260508074128 65 157 3.5 4.3 0.00 0.00 0.00 24 1018.1
20260508073624 66 157 1.7 2.6 0.00 0.00 0.00 24 1018.1
20260508073120 66 180 2.6 3.5 0.00 0.00 0.00 23 1018.0
20260508072618 67 180 1.7 5.2 0.00 0.00 0.00 23 1018.0
20260508072116 67 168 1.7 3.5 0.00 0.00 0.00 22 1017.9
20260508071615 68 157 0.0 4.3 0.00 0.00 0.00 22 1017.8
20260508071112 68 135 2.6 4.3 0.00 0.00 0.00 22 1017.6
20260508070611 69 146 3.5 5.2 0.00 0.00 0.00 21 1017.6
20260508070107 69 157 4.3 7.0 0.00 0.00 0.00 21 1017.5
20260508065606 70 135 7.8 8.7 0.00 0.00 0.00 20 1017.5
20260508065105 70 180 6.1 8.7 0.00 0.00 0.00 20 1017.4
20260508064601 70 157 8.7 8.7 0.00 0.00 0.00 20 1017.3
20260508064057 71 146 7.0 7.8 0.00 0.00 0.00 20 1017.5
20260508063557 71 168 6.1 9.6 0.00 0.00 0.00 20 1017.5
20260508063054 71 180 6.1 8.7 0.00 0.00 0.00 20 1017.4
20260508062552 71 135 7.8 10.4 0.00 0.00 0.00 19 1017.4
20260508062050 71 180 7.8 9.6 0.00 0.00 0.00 19 1017.3
20260508061546 71 135 6.1 9.6 0.00 0.00 0.00 20 1017.3
20260508061046 72 157 6.1 12.2 0.00 0.00 0.00 20 1017.3
20260508060542 72 157 6.1 9.6 0.00 0.00 0.00 19 1017.2
20260508060042 72 168 4.3 9.6 0.00 0.00 0.00 20 1017.3
20260508055538 72 135 5.2 10.4 0.00 0.00 0.00 20 1017.3
20260508055036 72 180 4.3 9.6 0.00 0.00 0.00 20 1017.3
20260508054532 72 135 7.0 9.6 0.00 0.00 0.00 20 1017.3
20260508054030 72 180 5.2 7.8 0.00 0.00 0.00 21 1017.4
20260508053529 72 180 5.2 7.0 0.00 0.00 0.00 21 1017.3
20260508053027 72 157 7.8 13.9 0.00 0.00 0.00 20 1017.3
20260508052525 72 135 8.7 10.4 0.00 0.00 0.00 19 1017.3
20260508052021 72 180 6.1 10.4 0.00 0.00 0.00 20 1017.1
20260508051521 72 135 7.0 11.3 0.00 0.00 0.00 19 1017.2
20260508051017 72 157 4.3 11.3 0.00 0.00 0.00 21 1017.4
20260508050515 72 135 9.6 11.3 0.00 0.00 0.00 19 1017.3
20260508050012 72 180 9.6 13.0 0.00 0.00 0.00 18 1017.3
20260508045509 72 180 9.6 10.4 0.00 0.00 0.00 20 1017.2
20260508045008 72 146 4.3 10.4 0.00 0.00 0.00 20 1017.3
20260508044505 72 168 10.4 10.4 0.00 0.00 0.00 20 1017.3
20260508044313 72 180 3.5 8.7 0.00 0.00 0.00 20 1017.3
20260508043814 72 180 4.3 9.6 0.00 0.00 0.00 20 1017.3
20260508043310 72 180 8.7 12.2 0.00 0.00 0.00 20 1017.4
20260508042808 71 135 12.2 12.2 0.00 0.00 0.00 19 1017.3
20260508042504 71 157 4.3 10.4 0.00 0.00 0.00 20 1017.4
20260508042002 71 135 9.6 13.9 0.00 0.00 0.00 19 1017.5
20260508041500 71 135 11.3 11.3 0.00 0.00 0.00 19 1017.4
20260508040958 71 180 6.1 10.4 0.00 0.00 0.00 20 1017.4
20260508040455 71 180 10.4 13.9 0.00 0.00 0.00 19 1017.4
20260508035954 71 135 9.6 12.2 0.00 0.00 0.00 20 1017.5
20260508035451 71 157 5.2 8.7 0.00 0.00 0.00 20 1017.6
20260508034446 71 146 11.3 11.3 0.00 0.00 0.00 19 1017.8
20260508034304 71 135 3.5 13.0 0.00 0.00 0.00 20 1017.9
20260508033801 70 168 9.6 9.6 0.00 0.00 0.00 20 1018.0
20260508033258 70 135 7.0 13.9 0.00 0.00 0.00 19 1018.0
20260508032756 70 157 7.8 12.2 0.00 0.00 0.00 20 1018.1
20260508032254 70 135 10.4 11.3 0.00 0.00 0.00 20 1018.2
20260508031752 70 157 8.7 13.0 0.00 0.00 0.00 19 1018.3
20260508031251 70 135 14.8 14.8 0.00 0.00 0.00 20 1018.5
20260508030748 70 157 12.2 13.0 0.00 0.00 0.00 20 1018.6
20260508030245 70 135 11.3 12.2 0.00 0.00 0.00 21 1018.6
20260508025743 69 135 5.2 13.0 0.00 0.00 0.00 21 1018.7
20260508025412 69 157 13.0 13.0 0.00 0.00 0.00 21 1018.8
20260508025238 69 135 5.2 11.3 0.00 0.00 0.00 22 1018.8
20260508024737 69 157 11.3 12.2 0.00 0.00 0.00 22 1018.9
20260508024233 69 135 7.0 14.8 0.00 0.00 0.00 22 1018.8
20260508023732 69 135 13.0 13.9 0.00 0.00 0.00 22 1018.9
20260508023621 69 146 4.3 13.0 0.00 0.00 0.00 24 1019.1
20260508023118 68 180 7.0 13.9 0.00 0.00 0.00 23 1019.1
20260508022836 68 135 13.9 13.9 0.00 0.00 0.00 23 1019.2
20260508022654 68 191 7.0 13.9 0.00 0.00 0.00 23 1019.2
20260508022402 68 135 13.9 13.9 0.00 0.00 0.00 23 1019.1
20260508022250 68 180 5.2 13.0 0.00 0.00 0.00 23 1019.1